This is the latest recevied weather packets stored in our database for station/object K3TLB-13. If no packets are shown the sender has not sent any weather packets the latest 10 day(s).
| Time | Temp. | Humidity | Pressure | Rain* | Wind** | Luminosity | Snow |
|---|---|---|---|---|---|---|---|
| 1777657755 | 16.11° C | 47% | 1012.8 hPa | 0 mm | - | - | - |
| 1777657454 | 15.56° C | 45% | 1012.8 hPa | 0 mm | - | - | - |
| 1777657155 | 15° C | 48% | 1013 hPa | 0 mm | - | - | - |
| 1777656855 | 15.56° C | 46% | 1012.8 hPa | 0 mm | - | - | - |
| 1777656555 | 15° C | 48% | 1013 hPa | 0 mm | - | - | - |
| 1777656255 | 15° C | 49% | 1013.1 hPa | 0 mm | - | - | - |
| 1777655955 | 15° C | 47% | 1013.1 hPa | 0 mm | - | - | - |
| 1777655655 | 15° C | 46% | 1013.1 hPa | 0 mm | - | - | - |
| 1777655355 | 15° C | 47% | 1013.2 hPa | 0 mm | - | - | - |
| 1777655055 | 15° C | 47% | 1013.1 hPa | 0 mm | - | - | - |
| 1777654755 | 15° C | 51% | 1013.2 hPa | 0 mm | - | - | - |
| 1777654455 | 15° C | 46% | 1013.3 hPa | 0 mm | - | - | - |
| 1777654155 | 15° C | 46% | 1013.3 hPa | 0 mm | - | - | - |
| 1777653855 | 15° C | 48% | 1013.4 hPa | 0 mm | - | - | - |
| 1777653555 | 15° C | 45% | 1013.4 hPa | 0 mm | - | - | - |
| 1777653256 | 14.44° C | 52% | 1013.5 hPa | 0 mm | - | - | - |
| 1777652955 | 14.44° C | 46% | 1013.5 hPa | 0 mm | - | - | - |
| 1777652655 | 13.89° C | 54% | 1013.6 hPa | 0 mm | - | - | - |
| 1777652355 | 13.89° C | 48% | 1013.7 hPa | 0 mm | - | - | - |
| 1777652055 | 13.89° C | 51% | 1013.7 hPa | 0 mm | - | - | - |
| 1777651755 | 13.89° C | 51% | 1013.7 hPa | 0 mm | - | - | - |
| 1777651455 | 13.33° C | 49% | 1013.8 hPa | 0 mm | - | - | - |
| 1777651155 | 13.89° C | 48% | 1013.8 hPa | 0 mm | - | - | - |
| 1777650855 | 13.89° C | 49% | 1013.9 hPa | 0 mm | - | - | - |
| 1777650556 | 13.89° C | 49% | 1014.1 hPa | 0 mm | - | - | - |
* Rain latest hour (hover to see other rain measurements)
** Current wind speed in m/s (hover to see current wind gust speed)